User: anonymous   Login
Location: Unspecified
(0.0000°N, 0.0000°E)
Time: 19:14:15
(UTC+00:00)
Language:

STARLINK-11656 [DTC] - Orbit

View from above orbital plane
View from above orbital plane
View from above satellite
View from above satellite

Ground track
Ground track

The orbit is defined by the following mean orbital elements,

1 63674U          26145.56400017 +.00000000 +00000-0 +13936-2 0 00004
2 63674  43.0005 174.9097 0001134 254.5825 105.4918 15.70864907    02
Epoch (UTC): 25 May 2026 13:32:09
Eccentricity: 0.0001134
inclination: 43.0005°
perigee height: 356 km
apogee height: 357 km
right ascension of ascending node: 174.9097°
argument of perigee: 254.5825°
revolutions per day: 15.70864907
mean anomaly at epoch: 105.4918°

The dashed part of the orbit path shows where the satellite is in the earth's shadow,  

DLR